Regional Weather Roundup
Issued by NWS

Home | Current Version | Previous Version | Graphics & Text | Print | Product List | Glossary On
Versions: 1 2 3 4 5 6 7 8 9 10 11 12 13 14 15 16 17 18 19 20 21 22 23 24 25 26 27 28 29 30 31 32 33 34 35 36 37 38 39 40 41 42 43 44 45 46 47 48 49 50
000
ASUS45 KABQ 310501
RWRNM
WEATHER ROUNDUP FOR NEW MEXICO
NATIONAL WEATHER SERVICE ALBUQUERQUE NM
1100 PM MDT THU OCT 30 2014

NOTE: "FAIR" MEANS FEW OR NO CLOUDS BELOW 12,000 FEET AGL WITH NO
       SIGNIFICANT WEATHER OR OBSTRUCTIONS TO VISION.

      THIS PRODUCT IS RELEASED AS TWO VERSIONS.  ONE VERSION NEAR
      THE TOP OF THE HOUR CONTAINING PRELIMINARY DATA FROM ALBUQUERQUE
      AND OTHER STATIONS.  A FINAL VERSION WITH ADDITIONAL DATA IS
      ISSUED ABOUT 10 MINUTES AFTER THE HOUR.

NMZ501-503-504-510>518-310600-
NORTHWEST PLATEAU/NORTHCENTRAL MOUNTAINS

CITY           SKY/WX    TMP DP  RH WIND       PRES   REMARKS
FARMINGTON     CLEAR     46  21  37 E12       30.28R
LOS ALAMOS     CLEAR     50  20  31 SW7       30.45R
SANTA FE       CLEAR     53  20  27 SE15      30.40R
TAOS           CLEAR     41  14  33 E5        30.43R
ANGEL FIRE     FAIR      31  20  63 CALM      30.51R

$$
NMZ402-403-502-505>509-310600-
WESTCENTRAL MOUNTAINS/SOUTHWEST MOUNTAINS

CITY           SKY/WX    TMP DP  RH WIND       PRES   REMARKS
GALLUP         CLEAR     43  18  36 CALM      30.31S
GRANTS         CLEAR     52  14  22 S8        30.35S
SILVER CITY    MOCLDY    57  28  33 CALM      30.31R

$$
NMZ407-409-411-412-310600-
SOUTHERN DESERTS

CITY           SKY/WX    TMP DP  RH WIND       PRES   REMARKS
LORDSBURG      FAIR      57  32  38 S7        30.21R
DEMING         MOCLDY    63  31  30 E10       30.24R
LAS CRUCES     MOCLDY    60  30  32 E3        30.25S
HOLLOMAN AFB   CLEAR     55  32  42 W6        30.24R
T OR C         PTCLDY    59  26  28 N5        30.27R

$$
NMZ519>523-310600-
CENTRAL VALLEYS/CENTRAL HIGHLANDS

CITY           SKY/WX    TMP DP  RH WIND       PRES   REMARKS
ALBUQUERQUE    CLEAR     60  23  24 E18       30.32R
DOUBLE EAGLE   CLEAR     50  23  34 SE5       30.35S
MORIARTY ARPT  FAIR      37  21  52 N3        30.43S
CLINES CORNERS PTCLDY    43  20  39 E7        30.44R
BELEN          NOT AVBL
SOCORRO        FAIR      51  28  40 CALM      30.30S

$$
NMZ524>526-539-540-310600-
SOUTHCENTRAL MOUNTAINS

CITY           SKY/WX    TMP DP  RH WIND       PRES   REMARKS
RUIDOSO        CLEAR     46  27  46 SE7       30.47R

$$
NMZ527>531-310600-
NORTHEAST HIGHLANDS/NORTHEAST PLAINS

CITY           SKY/WX    TMP DP  RH WIND       PRES   REMARKS
LAS VEGAS      CLEAR     44  21  40 CALM      30.46R
RATON          CLEAR     39  23  52 N7        30.44R WCI  34
CLAYTON        CLEAR     46  25  43 N7        30.42R

$$
NMZ532>537-310600-
EASTCENTRAL PLAINS

CITY           SKY/WX    TMP DP  RH WIND       PRES   REMARKS
TUCUMCARI      CLEAR     47  25  42 E8        30.36R
CANNON AFB     NOT AVBL
CLOVIS AIRPORT CLEAR     46  27  46 NE12      30.39R

$$
NMZ028-029-538-310600-
SOUTHEAST PLAINS

CITY           SKY/WX    TMP DP  RH WIND       PRES   REMARKS
ROSWELL        CLEAR     55  32  41 NE6       30.32R
CARLSBAD       CLEAR     58  47  66 N6        30.28R
HOBBS          CLEAR     59  39  47 NE13      30.32R HAZE


$$



USA.gov is the U.S. government's official web portal to all federal, state and local government web resources and services.